• Processing (Info)

  • MPEC 2014-J83 : 2014 JR25

    The following Minor Planet Electronic Circular may be linked-to from your own Web pages, but must not otherwise be redistributed electronically.

    A form allowing access to any MPEC is at the bottom of this page.


    Read MPEC 2014-J82 Read MPEC 2014-J84


    M.P.E.C. 2014-J83                                Issued 2014 May  9, 01:58 UT
    
         The Minor Planet Electronic Circulars contain information on unusual
             minor planets and routine data on comets.  They are published
       on behalf of Commission 20 of the International Astronomical Union by the
              Minor Planet Center, Smithsonian Astrophysical Observatory,
                              Cambridge, MA 02138, U.S.A.
    
                 Prepared using the Tamkin Foundation Computer Network
    
                                  MPC@CFA.HARVARD.EDU
                URL https://www.minorplanetcenter.net/    ISSN 1523-6714
    
                                       2014 JR25
    
    Observations:
         K14J25R* C2014 05 07.50303117 05 44.087-12 43 48.44         16.1 wtEJ083F51
         K14J25R  C2014 05 07.51569617 05 28.737-12 38 42.42         16.0 wtEJ083F51
         K14J25R  C2014 05 07.52837517 05 13.559-12 33 39.12         16.0 wtEJ083F51
         K14J25R KC2014 05 07.99787216 58 54.90 -10 00 42.4          16.8 VqEJ083I93
         K14J25R KC2014 05 08.00401616 58 50.09 -09 59 02.6          16.9 VqEJ083I93
         K14J25R KC2014 05 08.01278816 58 43.25 -09 56 41.0          16.8 VqEJ083I93
         K14J25R KC2014 05 08.02717 16 58 32.31 -09 52 44.9          16.4 VqEJ083958
         K14J25R KC2014 05 08.02931 16 58 30.66 -09 52 11.2          16.4 VqEJ083958
         K14J25R KC2014 05 08.03145 16 58 28.99 -09 51 37.2          17.2 VqEJ083958
         K14J25R KC2014 05 08.05933 16 58 04.53 -09 44 25.6                qEJ083204
         K14J25R KC2014 05 08.06086 16 58 03.37 -09 44 01.7                qEJ083204
         K14J25R KC2014 05 08.06230 16 58 02.26 -09 43 39.0          16.5 RqEJ083204
         K14J25R KC2014 05 08.06390 16 58 01.05 -09 43 13.8                qEJ083204
         K14J25R KC2014 05 08.06543 16 57 59.89 -09 42 50.0                qEJ083204
         K14J25R  C2014 05 08.28221 16 55 55.22 -08 49 55.1          17.0 VqEJ083H21
         K14J25R  C2014 05 08.28564 16 55 52.93 -08 49 09.2          17.0 VqEJ083H21
         K14J25R  C2014 05 08.28906 16 55 50.65 -08 48 23.4          16.8 VqEJ083H21
         K14J25R  C2014 05 08.29268 16 55 48.25 -08 47 35.1          17.0 VqEJ083H21
         K14J25R  C2014 05 08.29630 16 55 45.85 -08 46 46.8          17.0 VqEJ083H21
         K14J25R KC2014 05 08.33322 16 55 21.67 -08 38 40.2          17.1 VqEJ083H21
         K14J25R KC2014 05 08.33590 16 55 19.93 -08 38 05.3          17.4 VqEJ083H21
         K14J25R KC2014 05 08.33858 16 55 18.19 -08 37 30.2          16.9 VqEJ083H21
         K14J25R KC2014 05 08.34127 16 55 16.47 -08 36 55.4          17.0 VqEJ083H21
         K14J25R KC2014 05 08.34396 16 55 14.73 -08 36 20.3          16.6 VqEJ083H21
         K14J25R %C2014 05 08.36623 16 55 05.86 -08 31 08.0          16.5 RuEJ083H06
         K14J25R %C2014 05 08.37219 16 55 02.00 -08 29 52.2          16.4 RuEJ083H06
         K14J25R  C2014 05 08.43444 16 54 24.56 -08 16 49.0          16.5 RoEJ083926
         K14J25R  C2014 05 08.43743 16 54 22.73 -08 16 12.2          16.5 RoEJ083926
         K14J25R  C2014 05 08.44037 16 54 20.94 -08 15 36.2          16.2 RoEJ083926
         K14J25R  C2014 05 08.45775116 54 09.64 -08 12 14.2          16.3 RtEJ083H01
         K14J25R  C2014 05 08.46280116 54 06.67 -08 11 12.9          16.0 RtEJ083H01
         K14J25R  C2014 05 08.46679016 54 04.33 -08 10 24.6          16.2 RtEJ083H01
         K14J25R KC2014 05 08.55505 16 53 42.32 -07 47 36.4          17.1 VqEJ083E23
         K14J25R KC2014 05 08.56025 16 53 39.43 -07 46 38.8          17.2 VqEJ083E23
         K14J25R KC2014 05 08.56546 16 53 36.53 -07 45 41.3          17.4 VqEJ083E23
         K14J25R  C2014 05 08.56780 16 53 39.06 -07 50 51.9          18.2 RoEJ083300
         K14J25R  C2014 05 08.57067 16 53 37.54 -07 50 20.4          18.3 RoEJ083300
         K14J25R  C2014 05 08.57163 16 53 37.00 -07 50 09.4          18.5 RoEJ083300
         K14J25R  C2014 05 08.57258 16 53 36.52 -07 49 58.6          18.3 RoEJ083300
         K14J25R  C2014 05 08.57354 16 53 35.97 -07 49 48.5          18.2 RoEJ083300
         K14J25R KC2014 05 08.58529 16 53 25.44 -07 42 03.8          17.1 VqEJ083E23
         K14J25R KC2014 05 08.58790 16 53 23.97 -07 41 35.4          17.1 VqEJ083E23
         K14J25R KC2014 05 08.94649 16 50 56.19 -06 48 08.2          17.4 VqEJ083595
         K14J25R KC2014 05 08.95145 16 50 54.00 -06 47 24.3          17.4 VqEJ083595
         K14J25R KC2014 05 08.95642 16 50 51.79 -06 46 39.8          17.5 VqEJ083595
    
    Observer details:
    204 Schiaparelli Observatory.  Observer L. Buzzi.  0.60-m f/4.64 reflector
        + CCD.
    300 Bisei Spaceguard Center--BATTeRS.  Observers S. Okumura, N. Hashimoto.
        1.0-m f/3.0 reflector + CCD.
    595 Farra d'Isonzo.  Observer E. Pettarin.  0.40-m f/4.5 reflector + CCD.
    926 Tenagra II Observatory.  Observers M. Schwartz, P. R. Holvorcem.  0.81-m
        f/7 Ritchey-Chretien + CCD.
    958 Observatoire de Dax.  Observers P. Dupouy, J. B. de Vanssay.  Measurer
        P. Dupouy.  0.43-m f/2.7 reflector + CCD.
    E23 Arcadia.  Observer A. Hidas.  0.35-m Schmidt-Cassegrain + CCD.
    F51 Pan-STARRS 1, Haleakala.  Observers N. Primak, A. Schultz. T. Goggia,
        M. Willman.  Measurers M. Micheli, P. Veres.  1.8-m Ritchey-Chretien + CCD.
    H01 Magdalena Ridge Observatory, Socorro.  Observer W. H. Ryan.  2.4-m f/8.9
        reflector + CCD.
    H06 iTelescope Observatory, Mayhill.  Observers E. Guido, N. Howes,
        M. Nicolini.  0.51-m f/6.9 reflector + CCD.
    H21 Astronomical Research Observatory, Westfield.  Observer R. Holmes.
        Measurers L. Buzzi, S. Foglia, T. Vorobjov, T. Linder.  0.61-m f/4.0
        astrograph + CCD, 0.81-m f/4.0 astrograph + CCD.
    I93 St Pardon de Conques.  Observer F. Losse.  0.40-m f/3.7 reflector + CCD.
    
    Orbital elements:
    2014 JR25                                                Earth MOID = 0.0038 AU
    Epoch 2014 May 23.0 TT = JDT 2456800.5                  MPC
    M  13.53675              (2000.0)            P               Q
    n   0.24613179     Peri.  304.27125     -0.97647728     -0.17316156
    a   2.5216854      Node   226.13489     +0.20307911     -0.93883594
    e   0.6669401      Incl.   10.26517     -0.07246374     -0.29766115
    P   4.00           H   23.4           G   0.15           U   6
    Residuals in seconds of arc
    140507 F51  0.0   0.1+    140508 H21  0.2+  0.2-    140508 H01  0.0   0.0
    140507 F51  0.0   0.1+    140508 H21  0.1+  0.2-    140508 H01  0.1-  0.0
    140507 F51  0.2+  0.2-    140508 H21  0.1+  0.2-    140508 E23  0.0   0.0
    140507 I93  0.7-  0.2+    140508 H21  0.1+  0.2-    140508 E23  0.2+  0.0
    140508 I93  0.6-  0.1+    140508 H21  0.3+  0.2-    140508 E23  0.4+  0.1+
    140508 I93  0.2-  0.2-    140508 H21  0.1+  0.3-    140508 300  0.4+  0.2-
    140508 958  1.3-  1.3+    140508 H21  0.0   0.1-    140508 300  0.7+  0.4-
    140508 958  1.1-  0.8+    140508 H21  0.2+  0.2-    140508 300  0.4+  0.0
    140508 958  1.2-  0.6+    140508 H21  0.0   0.1-    140508 300  0.8+  0.4+
    140508 204  0.2+  0.1-    140508 H06  0.3+  0.3-    140508 300  0.3+  0.1-
    140508 204  0.2+  0.3-    140508 H06  0.1-  0.3-    140508 E23  0.2+  0.1+
    140508 204  0.0   0.2-    140508 926  0.0   0.1-    140508 E23  0.0   0.1+
    140508 204  0.1+  0.1-    140508 926  0.1+  0.0     140508 595  0.6-  0.5+
    140508 204  0.1+  0.3-    140508 926  0.1+  0.0     140508 595  0.5-  0.1+
    140508 H21  0.3+  0.2-    140508 H01  0.1-  0.1-    140508 595  0.7-  0.4+
    
    Ephemeris:
    2014 JR25                a,e,i = 2.52, 0.67, 10                  q = 0.8399
    Date    TT    R. A. (2000) Decl.     Delta      r     Elong.  Phase     V
    2014 04 09    04 15 16.3 -01 54 45   0.2399  0.8568    47.2   120.9    24.9
    ...
    2014 04 24    04 21 17.3 -04 31 44   0.1019  0.9274    37.9   138.2    24.9
    ...
    2014 05 02    04 07 07.4 -11 11 59   0.03093 0.9825    34.8   144.2    23.3
    ...
    2014 05 08    16 58 44.9 -09 55 22   0.02344 1.0295   150.0    29.3    16.6
    2014 05 09    16 50 30.1 -06 36 47   0.03211 1.0378   151.6    27.6    17.2
    2014 05 10    16 45 46.7 -04 43 05   0.04087 1.0461   152.6    26.4    17.8
    ...
    2014 05 16    16 35 32.2 -00 57 37   0.09431 1.0977   155.9    22.1    19.5
    ...
    2014 05 24    16 30 57.8 -00 07 55   0.1679  1.1702   158.3    18.7    20.8
    ...
    2014 06 08    16 27 27.7 -00 54 08   0.3181  1.3126   156.4    18.0    22.4
    
    A. U. Tomatic                (C) Copyright 2014 MPC           M.P.E.C. 2014-J83
    

    Read MPEC 2014-J82 Read MPEC 2014-J84


    MPEC number:

    Enter an MPEC number in one of the following forms:

    • 1997-B01 (the full form)
    • J97B01 (the packed version of the full form)
    • B01 (the abbreviated form)